Regional Weather Roundup
Issued by NWS

Home | Current Version | Previous Version | Text Only | Print | Product List | Glossary On
Versions: 1 2 3 4 5 6 7 8 9 10 11 12 13 14 15 16 17 18 19 20 21 22 23 24 25 26 27 28 29 30 31 32 33 34 35 36 37 38 39 40 41 42 43 44 45 46 47 48 49 50
000
ASUS43 KLMK 231710
RWRKY
KENTUCKY REGIONAL WEATHER ROUNDUP
NATIONAL WEATHER SERVICE LOUISVILLE KY
100 PM EDT SUN APR 23 2017

NOTE "FAIR" INDICATES FEW OR NO CLOUDS BELOW 12,000 FEET
WITH NO SIGNIFICANT WEATHER AND/OR OBSTRUCTIONS TO VISIBILITY.

KYZ001>023-026-027-061>063-070>075-231800-
WESTERN AND SOUTH CENTRAL KENTUCKY

CITY           SKY/WX    TMP DP  RH WIND       PRES   REMARKS
PADUCAH        PTSUNNY   62  44  51 N17G28    29.95S
HENDERSON      SUNNY     62  41  46 N21G28    29.95F
OWENSBORO      CLOUDY    60  42  51 NE15      29.96R
HOPKINSVILLE   LGT RAIN  48  45  87 N14       29.91S
BOWLING GREEN  LGT RAIN  49  47  93 NE12      29.92S FOG
GLASGOW        LGT RAIN N/A N/A N/A NE8       29.91F
$$

KYZ024-025-028>034-038-045-046-053-231800-
NORTH CENTRAL KENTUCKY

CITY           SKY/WX    TMP DP  RH WIND       PRES   REMARKS
LOUISVILLE/SDF CLOUDY    63  44  50 N16       29.95S
LOUISVILLE/LOU CLOUDY    62  43  49 N10       29.95F
FORT KNOX      CLOUDY    56  44  62 NE9G20    29.94R
$$

KYZ035>037-039>044-047>052-055>060-089>105-231800-
NORTHEAST KENTUCKY

CITY           SKY/WX    TMP DP  RH WIND       PRES   REMARKS
LEXINGTON      CLOUDY    52  42  69 NE16      29.94R
COVINGTON      CLOUDY    59  37  44 NE15      30.00F
FRANKFORT      CLOUDY    55  41  59 NE9       29.95R
$$

KYZ054-064>069-076>088-106>120-231800-
SOUTHEAST KENTUCKY

CITY           SKY/WX    TMP DP  RH WIND       PRES   REMARKS
JACKSON        LGT RAIN  48  47  96 VRB3      29.95S FOG
LONDON         RAIN      50  47  89 E9        29.89S FOG
SOMERSET       LGT RAIN  50  50 100 N6        29.90S
MIDDLESBORO    RAIN      55  55 100 CALM      29.87F
MONTICELLO     RAIN      52  50  93 N16       29.90R
$$





USA.gov is the U.S. government's official web portal to all federal, state and local government web resources and services.